M I D A S
Marine Information and Data Acquisition System
Tripno 2155 of the Zeeleeuw from 2011-08-01 08:31:43 to 2011-08-01 09:38:39
Back to CruiseResearch ActivitiesStationsMapUnderway DataData graphs

EquipmentUnitsComment
TimeDGPSUTC
LatitudeDGPSDM.mWGS84
LongitudeDGPSDM.mWGS84
TemperatureSBE03/SBE38deg celciusITS90
ConductivitySBE21S/mITS90
SalinitySBE21 Practical Salinity Units
ChlorophylAChelsea fluorimeterg/lCalibrated in Aceton
Missing or incorrect values are displayed as -999
Sea surface data collected by the RV Zeeleeuw from 2011-08-01 06:11:46 to 2011-08-01 10:16:22
Time Latitude Longitude Temperature Conductivity Salinity ChlorophylA
2011-08-01 06:12:50 51°13.636 2°56.019 19.7037 -999 -999 -999
2011-08-01 06:13:51 51°13.637 2°56.019 19.7072 -999 -999 -999
2011-08-01 06:14:50 51°13.637 2°56.02 19.7185 -999 -999 -999
2011-08-01 06:15:50 51°13.637 2°56.018 19.7239 -999 -999 -999
2011-08-01 06:16:51 51°13.636 2°56.019 19.7233 -999 -999 -999
2011-08-01 06:17:50 51°13.637 2°56.019 19.722 -999 -999 -999
2011-08-01 06:18:50 51°13.636 2°56.019 19.7292 -999 -999 -999
2011-08-01 06:19:50 51°13.636 2°56.018 19.7358 -999 -999 -999
2011-08-01 06:20:51 51°13.636 2°56.018 19.7357 -999 -999 -999
2011-08-01 06:21:51 51°13.635 2°56.019 19.7418 -999 -999 -999
2011-08-01 06:22:50 51°13.636 2°56.019 19.7454 -999 -999 -999
2011-08-01 06:23:50 51°13.636 2°56.019 19.7488 -999 -999 -999
2011-08-01 06:24:51 51°13.636 2°56.019 19.7545 -999 -999 -999
2011-08-01 06:25:51 51°13.636 2°56.019 19.7591 -999 -999 -999
2011-08-01 06:26:50 51°13.636 2°56.018 19.7661 -999 -999 -999
2011-08-01 06:27:50 51°13.636 2°56.019 19.7692 -999 -999 -999
2011-08-01 06:28:50 51°13.637 2°56.019 19.7744 -999 -999 -999
2011-08-01 06:29:50 51°13.637 2°56.019 19.7788 -999 -999 -999
2011-08-01 06:30:51 51°13.637 2°56.018 19.7825 -999 -999 -999
2011-08-01 06:31:51 51°13.637 2°56.018 19.7819 -999 -999 -999
2011-08-01 06:32:51 51°13.637 2°56.017 19.7889 -999 -999 -999
2011-08-01 06:33:50 51°13.636 2°56.018 19.7878 -999 -999 -999
2011-08-01 06:34:49 51°13.637 2°56.018 19.7939 -999 -999 -999
2011-08-01 06:35:48 51°13.637 2°56.017 19.8002 -999 -999 -999
2011-08-01 06:36:47 51°13.637 2°56.017 19.8059 -999 -999 -999
2011-08-01 06:37:47 51°13.637 2°56.017 19.8103 -999 -999 -999
2011-08-01 06:38:47 51°13.637 2°56.017 19.8178 -999 -999 -999
2011-08-01 06:39:47 51°13.637 2°56.017 19.827 -999 -999 -999
2011-08-01 06:40:47 51°13.638 2°56.017 19.8358 -999 -999 -999
2011-08-01 06:41:46 51°13.638 2°56.018 19.8607 -999 -999 -999
2011-08-01 06:42:47 51°13.637 2°56.017 19.867 -999 -999 -999
2011-08-01 06:43:47 51°13.637 2°56.017 19.8732 -999 -999 -999
2011-08-01 06:44:47 51°13.636 2°56.017 19.8811 -999 -999 -999
2011-08-01 06:45:47 51°13.637 2°56.017 19.8874 -999 -999 -999
2011-08-01 06:46:47 51°13.637 2°56.017 19.8899 -999 -999 -999
2011-08-01 06:47:47 51°13.637 2°56.018 19.8908 -999 -999 -999
2011-08-01 06:48:47 51°13.637 2°56.018 19.9041 -999 -999 -999
2011-08-01 06:49:47 51°13.637 2°56.019 19.9178 -999 -999 -999
2011-08-01 06:50:47 51°13.637 2°56.019 19.9235 -999 -999 -999
2011-08-01 06:51:47 51°13.637 2°56.018 19.9315 -999 -999 -999
2011-08-01 06:52:47 51°13.637 2°56.018 19.9385 -999 -999 -999
2011-08-01 06:53:47 51°13.637 2°56.018 19.9464 -999 -999 -999
2011-08-01 06:54:46 51°13.637 2°56.018 19.9556 -999 -999 -999
2011-08-01 06:55:47 51°13.636 2°56.017 19.9652 -999 -999 -999
2011-08-01 06:56:47 51°13.636 2°56.017 19.9712 -999 -999 -999
2011-08-01 06:57:47 51°13.637 2°56.016 19.9817 -999 -999 -999
2011-08-01 06:58:47 51°13.637 2°56.016 19.993 -999 -999 -999
2011-08-01 06:59:47 51°13.637 2°56.017 20.0013 -999 -999 -999
2011-08-01 07:00:47 51°13.637 2°56.017 20.0106 -999 -999 -999
2011-08-01 07:01:46 51°13.637 2°56.017 20.0224 -999 -999 -999
2011-08-01 07:02:47 51°13.637 2°56.018 20.0269 -999 -999 -999
2011-08-01 07:03:47 51°13.637 2°56.018 20.037 -999 -999 -999
2011-08-01 07:04:47 51°13.638 2°56.017 20.0446 -999 -999 -999
2011-08-01 07:05:47 51°13.638 2°56.017 20.0585 -999 -999 -999
2011-08-01 07:06:46 51°13.638 2°56.017 20.0719 -999 -999 -999
2011-08-01 07:07:46 51°13.637 2°56.017 20.078 -999 -999 -999
2011-08-01 07:08:47 51°13.637 2°56.017 20.0847 -999 -999 -999
2011-08-01 07:09:47 51°13.637 2°56.018 20.0906 -999 -999 -999
2011-08-01 07:10:47 51°13.637 2°56.018 20.1009 -999 -999 -999
2011-08-01 07:11:47 51°13.637 2°56.018 20.1075 -999 -999 -999
2011-08-01 07:12:47 51°13.638 2°56.018 20.1188 -999 -999 -999
2011-08-01 07:13:49 51°13.638 2°56.019 20.1283 -999 -999 -999
2011-08-01 07:14:47 51°13.638 2°56.019 20.1361 -999 -999 -999
2011-08-01 07:15:47 51°13.638 2°56.019 20.1429 -999 -999 -999
2011-08-01 07:16:47 51°13.637 2°56.019 20.1524 -999 -999 -999
2011-08-01 07:17:47 51°13.637 2°56.019 20.1674 -999 -999 -999
2011-08-01 07:18:47 51°13.637 2°56.019 20.1738 -999 -999 -999
2011-08-01 07:19:47 51°13.637 2°56.019 20.1861 -999 -999 -999
2011-08-01 07:20:47 51°13.637 2°56.018 20.1975 -999 -999 -999
2011-08-01 07:21:47 51°13.637 2°56.017 20.2259 -999 -999 -999
2011-08-01 07:22:47 51°13.637 2°56.017 20.2177 -999 -999 -999
2011-08-01 07:23:47 51°13.638 2°56.017 20.2298 -999 -999 -999
2011-08-01 07:24:47 51°13.637 2°56.018 20.2387 -999 -999 -999
2011-08-01 07:25:47 51°13.637 2°56.018 20.2493 -999 -999 -999
2011-08-01 07:26:47 51°13.637 2°56.019 20.256 -999 -999 -999
2011-08-01 07:27:47 51°13.638 2°56.02 20.2678 -999 -999 -999
2011-08-01 07:28:47 51°13.636 2°56.018 20.2855 -999 -999 -999
2011-08-01 07:29:47 51°13.636 2°56.017 20.2919 -999 -999 -999
2011-08-01 07:30:47 51°13.636 2°56.018 20.3 -999 -999 -999
2011-08-01 07:31:47 51°13.635 2°56.018 20.3137 -999 -999 -999
2011-08-01 07:32:47 51°13.635 2°56.018 20.3302 -999 -999 -999
2011-08-01 07:33:47 51°13.636 2°56.019 20.3378 -999 -999 -999
2011-08-01 07:34:47 51°13.636 2°56.018 20.3498 -999 -999 -999
2011-08-01 07:35:47 51°13.637 2°56.018 20.3512 -999 -999 -999
2011-08-01 07:36:47 51°13.637 2°56.017 20.3666 -999 -999 -999
2011-08-01 07:37:47 51°13.638 2°56.019 20.3746 -999 -999 -999
2011-08-01 07:38:47 51°13.638 2°56.019 20.3873 -999 -999 -999
2011-08-01 07:39:47 51°13.638 2°56.019 20.3975 -999 -999 -999
2011-08-01 07:40:47 51°13.638 2°56.018 20.4058 -999 -999 -999
2011-08-01 07:41:47 51°13.638 2°56.017 20.4172 -999 -999 -999
2011-08-01 07:42:47 51°13.638 2°56.017 20.4267 -999 -999 -999
2011-08-01 07:43:47 51°13.638 2°56.017 20.4365 -999 -999 -999
2011-08-01 07:44:47 51°13.638 2°56.017 20.447 -999 -999 -999
2011-08-01 07:45:47 51°13.638 2°56.017 20.4588 -999 -999 -999
2011-08-01 07:46:47 51°13.638 2°56.018 20.4588 -999 -999 -999
2011-08-01 07:47:47 51°13.636 2°56.018 20.4773 -999 -999 -999
2011-08-01 07:48:47 51°13.637 2°56.018 20.487 -999 -999 -999
2011-08-01 07:49:47 51°13.637 2°56.018 20.4984 -999 -999 -999
2011-08-01 07:50:47 51°13.635 2°56.018 20.5042 -999 -999 -999
2011-08-01 07:51:47 51°13.636 2°56.018 20.5081 -999 -999 -999
2011-08-01 07:52:47 51°13.636 2°56.018 20.5191 -999 -999 -999
2011-08-01 07:53:47 51°13.637 2°56.019 20.5275 -999 -999 -999
2011-08-01 07:54:47 51°13.637 2°56.019 20.534 -999 -999 -999
2011-08-01 07:55:47 51°13.637 2°56.019 20.5457 -999 -999 -999
2011-08-01 07:56:47 51°13.637 2°56.019 20.5565 -999 -999 -999
2011-08-01 07:57:47 51°13.636 2°56.018 20.572 -999 -999 -999
2011-08-01 07:58:47 51°13.636 2°56.018 20.5672 -999 -999 -999
2011-08-01 07:59:47 51°13.635 2°56.018 20.5848 -999 -999 -999
2011-08-01 08:00:47 51°13.636 2°56.018 20.5948 -999 -999 -999
2011-08-01 08:01:47 51°13.636 2°56.018 20.6064 -999 -999 -999
2011-08-01 08:02:47 51°13.636 2°56.018 20.6127 -999 -999 -999
2011-08-01 08:03:47 51°13.636 2°56.018 20.6215 -999 -999 -999
2011-08-01 08:04:47 51°13.637 2°56.017 20.6328 -999 -999 -999
2011-08-01 08:05:47 51°13.636 2°56.017 20.6419 -999 -999 -999
2011-08-01 08:06:47 51°13.637 2°56.017 20.6488 -999 -999 -999
2011-08-01 08:07:47 51°13.635 2°56.018 20.6584 -999 -999 -999
2011-08-01 08:08:47 51°13.635 2°56.018 20.6625 -999 -999 -999
2011-08-01 08:09:47 51°13.636 2°56.018 20.6727 -999 -999 -999
2011-08-01 08:10:47 51°13.637 2°56.017 20.6786 -999 -999 -999
2011-08-01 08:11:47 51°13.637 2°56.017 20.6951 -999 -999 -999
2011-08-01 08:12:47 51°13.637 2°56.018 20.7061 -999 -999 -999
2011-08-01 08:13:47 51°13.637 2°56.018 20.7215 -999 -999 -999
2011-08-01 08:14:47 51°13.635 2°56.019 20.6976 -999 -999 -999
2011-08-01 08:15:47 51°13.635 2°56.019 20.7498 -999 -999 -999
2011-08-01 08:16:47 51°13.635 2°56.019 20.7588 -999 -999 -999
2011-08-01 08:17:47 51°13.635 2°56.019 20.7639 -999 -999 -999
2011-08-01 08:18:47 51°13.636 2°56.019 20.7712 -999 -999 -999
2011-08-01 08:19:47 51°13.637 2°56.017 20.7667 -999 -999 -999
2011-08-01 08:20:47 51°13.636 2°56.016 20.7896 -999 -999 -999
2011-08-01 08:21:47 51°13.634 2°56.015 20.8204 -999 -999 -999
2011-08-01 08:22:47 51°13.601 2°56.057 20.8109 -999 -999 -999
2011-08-01 08:23:47 51°13.551 2°56.138 20.7988 -999 -999 -999
2011-08-01 08:24:47 51°13.524 2°56.227 20.8477 -999 -999 -999
2011-08-01 08:25:47 51°13.529 2°56.275 20.7801 -999 -999 -999
2011-08-01 08:26:47 51°13.537 2°56.288 20.8117 -999 -999 -999
2011-08-01 08:27:50 51°13.53 2°56.279 20.8806 -999 -999 -999
2011-08-01 08:28:49 51°13.536 2°56.28 20.8594 -999 -999 -999
2011-08-01 08:29:50 51°13.539 2°56.257 20.8774 -999 -999 -999
2011-08-01 08:30:48 51°13.553 2°56.152 20.8322 -999 -999 -999
2011-08-01 08:31:47 51°13.598 2°56.026 20.8602 -999 -999 -999
2011-08-01 08:32:48 51°13.664 2°55.883 20.8708 -999 -999 -999
2011-08-01 08:33:47 51°13.742 2°55.729 20.8314 -999 -999 -999
2011-08-01 08:34:47 51°13.851 2°55.613 20.8945 -999 -999 -999
2011-08-01 08:35:49 51°13.981 2°55.527 20.906 -999 -999 -999
2011-08-01 08:36:49 51°14.112 2°55.437 20.9082 -999 -999 -999
2011-08-01 08:37:47 51°14.243 2°55.333 20.891 -999 -999 -999
2011-08-01 08:38:48 51°14.389 2°55.196 20.9303 -999 -999 -999
2011-08-01 08:39:47 51°14.54 2°55.024 20.8664 -999 -999 -999
2011-08-01 08:40:47 51°14.695 2°54.808 20.9412 -999 -999 -999
2011-08-01 08:41:47 51°14.85 2°54.577 20.9216 -999 -999 -999
2011-08-01 08:42:47 51°15.032 2°54.442 20.9545 -999 -999 -999
2011-08-01 08:43:47 51°15.221 2°54.405 20.9462 -999 -999 -999
2011-08-01 08:44:47 51°15.407 2°54.328 20.9793 -999 -999 -999
2011-08-01 08:45:47 51°15.595 2°54.293 20.9752 -999 -999 -999
2011-08-01 08:46:47 51°15.786 2°54.251 21.0137 -999 -999 -999
2011-08-01 08:47:47 51°15.975 2°54.204 20.9968 -999 -999 -999
2011-08-01 08:48:47 51°16.132 2°54.223 21.0076 -999 -999 -999
2011-08-01 08:49:47 51°16.196 2°54.231 21.0347 -999 -999 -999
2011-08-01 08:50:47 51°16.212 2°54.229 20.9353 -999 -999 -999
2011-08-01 08:51:47 51°16.215 2°54.224 20.9688 -999 -999 -999
2011-08-01 08:52:47 51°16.219 2°54.212 20.9886 -999 -999 -999
2011-08-01 08:53:47 51°16.225 2°54.192 21.0072 -999 -999 -999
2011-08-01 08:54:47 51°16.231 2°54.168 21.0219 -999 -999 -999
2011-08-01 08:55:47 51°16.237 2°54.145 21.0398 -999 -999 -999
2011-08-01 08:56:47 51°16.24 2°54.129 21.0576 -999 -999 -999
2011-08-01 08:57:47 51°16.24 2°54.119 21.0719 -999 -999 -999
2011-08-01 08:58:47 51°16.246 2°54.138 21.0979 -999 -999 -999
2011-08-01 08:59:47 51°16.255 2°54.251 21.1303 -999 -999 -999
2011-08-01 09:00:47 51°16.276 2°54.326 21.1327 -999 -999 -999
2011-08-01 09:01:47 51°16.301 2°54.35 21.1569 -999 -999 -999
2011-08-01 09:02:47 51°16.314 2°54.363 21.1634 -999 -999 -999
2011-08-01 09:03:47 51°16.319 2°54.373 21.2129 -999 -999 -999
2011-08-01 09:04:47 51°16.322 2°54.378 21.2261 -999 -999 -999
2011-08-01 09:05:47 51°16.324 2°54.375 21.2413 -999 -999 -999
2011-08-01 09:06:47 51°16.326 2°54.365 21.2578 -999 -999 -999
2011-08-01 09:07:47 51°16.328 2°54.353 21.3068 -999 -999 -999
2011-08-01 09:08:47 51°16.352 2°54.328 21.3311 -999 -999 -999
2011-08-01 09:09:47 51°16.421 2°54.216 21.3456 -999 -999 -999
2011-08-01 09:10:47 51°16.529 2°54.004 21.3496 -999 -999 -999
2011-08-01 09:11:47 51°16.632 2°53.715 21.3723 -999 -999 -999
2011-08-01 09:12:47 51°16.744 2°53.422 21.3972 -999 -999 -999
2011-08-01 09:13:47 51°16.859 2°53.138 21.4389 -999 -999 -999
2011-08-01 09:14:47 51°16.969 2°52.859 21.4442 -999 -999 -999
2011-08-01 09:15:47 51°17.107 2°52.61 21.4846 -999 -999 -999
2011-08-01 09:16:47 51°17.241 2°52.355 21.5096 -999 -999 -999
2011-08-01 09:17:47 51°17.379 2°52.112 21.4969 -999 -999 -999
2011-08-01 09:18:47 51°17.535 2°51.906 21.528 -999 -999 -999
2011-08-01 09:19:47 51°17.678 2°51.675 21.5502 -999 -999 -999
2011-08-01 09:20:47 51°17.836 2°51.477 21.5878 -999 -999 -999
2011-08-01 09:21:47 51°17.997 2°51.277 21.6133 -999 -999 -999
2011-08-01 09:22:47 51°18.16 2°51.08 21.6419 -999 -999 -999
2011-08-01 09:23:47 51°18.324 2°50.917 21.6634 -999 -999 -999
2011-08-01 09:24:47 51°18.416 2°50.91 21.694 -999 -999 -999
2011-08-01 09:25:47 51°18.441 2°50.926 21.7247 -999 -999 -999
2011-08-01 09:26:47 51°18.443 2°50.928 21.7595 -999 -999 -999
2011-08-01 09:27:47 51°18.444 2°50.923 21.7885 -999 -999 -999
2011-08-01 09:28:47 51°18.446 2°50.911 21.8081 -999 -999 -999
2011-08-01 09:29:47 51°18.448 2°50.893 21.8369 -999 -999 -999
2011-08-01 09:30:47 51°18.451 2°50.869 21.8604 -999 -999 -999
2011-08-01 09:31:47 51°18.455 2°50.839 21.89 -999 -999 -999
2011-08-01 09:32:47 51°18.458 2°50.805 21.9204 -999 -999 -999
2011-08-01 09:33:47 51°18.461 2°50.765 21.9466 -999 -999 -999
2011-08-01 09:34:47 51°18.474 2°50.738 21.9614 -999 -999 -999
2011-08-01 09:35:47 51°18.481 2°50.736 21.9969 -999 -999 -999
2011-08-01 09:36:47 51°18.482 2°50.732 22.0128 -999 -999 -999
2011-08-01 09:37:47 51°18.483 2°50.733 22.0445 -999 -999 -999
2011-08-01 09:38:47 51°18.495 2°50.754 22.068 -999 -999 -999
2011-08-01 09:39:47 51°18.519 2°50.9 22.0842 -999 -999 -999
2011-08-01 09:40:47 51°18.425 2°51.077 22.123 -999 -999 -999
2011-08-01 09:41:47 51°18.256 2°51.254 22.1412 -999 -999 -999
2011-08-01 09:42:47 51°18.066 2°51.407 22.1688 -999 -999 -999
2011-08-01 09:43:47 51°17.888 2°51.584 22.1774 -999 -999 -999
2011-08-01 09:44:47 51°17.7 2°51.739 22.2144 -999 -999 -999
2011-08-01 09:45:47 51°17.511 2°51.901 22.2305 -999 -999 -999
2011-08-01 09:46:47 51°17.34 2°52.098 22.2621 -999 -999 -999
2011-08-01 09:47:47 51°17.171 2°52.298 22.2748 -999 -999 -999
2011-08-01 09:48:47 51°16.983 2°52.457 22.303 -999 -999 -999
2011-08-01 09:49:47 51°16.792 2°52.61 22.3214 -999 -999 -999
2011-08-01 09:50:47 51°16.604 2°52.769 22.3499 -999 -999 -999
2011-08-01 09:51:47 51°16.414 2°52.919 22.3716 -999 -999 -999
2011-08-01 09:52:47 51°16.224 2°53.069 22.3839 -999 -999 -999
2011-08-01 09:53:47 51°16.039 2°53.227 22.4129 -999 -999 -999
2011-08-01 09:54:47 51°15.855 2°53.384 22.4255 -999 -999 -999
2011-08-01 09:55:47 51°15.678 2°53.558 22.4543 -999 -999 -999
2011-08-01 09:56:47 51°15.516 2°53.757 22.4778 -999 -999 -999
2011-08-01 09:57:47 51°15.358 2°53.955 22.4969 -999 -999 -999
2011-08-01 09:58:47 51°15.233 2°54.104 22.1219 -999 -999 -999
2011-08-01 09:59:47 51°15.118 2°54.241 22.111 -999 -999 -999
2011-08-01 10:00:47 51°14.97 2°54.426 21.8815 -999 -999 -999
2011-08-01 10:01:47 51°14.809 2°54.629 21.8612 -999 -999 -999
2011-08-01 10:02:47 51°14.65 2°54.832 21.9358 -999 -999 -999
2011-08-01 10:03:47 51°14.491 2°55.034 21.8888 -999 -999 -999
2011-08-01 10:04:47 51°14.34 2°55.223 21.9731 -999 -999 -999
2011-08-01 10:05:47 51°14.192 2°55.369 21.9771 -999 -999 -999
2011-08-01 10:06:47 51°14.064 2°55.466 21.9554 -999 -999 -999
2011-08-01 10:07:47 51°13.948 2°55.547 22.0047 -999 -999 -999
2011-08-01 10:08:47 51°13.857 2°55.61 22.0258 -999 -999 -999
2011-08-01 10:09:47 51°13.773 2°55.689 22.0378 -999 -999 -999
2011-08-01 10:10:47 51°13.715 2°55.785 22.0111 -999 -999 -999
2011-08-01 10:11:47 51°13.673 2°55.871 22.0406 -999 -999 -999
2011-08-01 10:12:47 51°13.642 2°55.95 22.0671 -999 -999 -999
2011-08-01 10:13:47 51°13.634 2°56.013 22.1067 -999 -999 -999
2011-08-01 10:14:47 51°13.634 2°56.016 22.093 -999 -999 -999
2011-08-01 10:15:47 51°13.636 2°56.019 22.0771 -999 -999 -999